Time,TemperatureF,DewpointF,PressureIn,WindDirection,WindDirectionDegrees,WindSpeedMPH,WindSpeedGustMPH,Humidity,HourlyPrecipIn,Conditions,Clouds,dailyrainin,SoftwareType,DateUTC
2013-10-22 00:05:00,49.8,47.0,30.19,NNE,19,0.0,0.0,89,0.00,,,0.00,weatherlink.com 1.10,2013-10-22 05:05:00,
2013-10-22 00:20:00,49.8,47.0,30.19,NNE,19,0.0,0.0,89,0.00,,,0.00,weatherlink.com 1.10,2013-10-22 05:20:00,
2013-10-22 00:35:00,49.2,46.0,30.19,NNE,18,0.0,0.0,89,0.00,,,0.00,weatherlink.com 1.10,2013-10-22 05:35:00,
2013-10-22 00:54:00,48.4,46.0,30.19,NNE,19,0.0,0.0,90,0.00,,,0.00,weatherlink.com 1.10,2013-10-22 05:54:00,
2013-10-22 01:05:00,48.1,45.0,30.20,NNE,18,0.0,0.0,90,0.00,,,0.00,weatherlink.com 1.10,2013-10-22 06:05:00,
2013-10-22 01:20:00,47.7,45.0,30.20,NNE,18,0.0,0.0,90,0.00,,,0.00,weatherlink.com 1.10,2013-10-22 06:20:00,
2013-10-22 01:35:00,47.6,45.0,30.20,NNE,18,0.0,0.0,90,0.00,,,0.00,weatherlink.com 1.10,2013-10-22 06:35:00,
2013-10-22 01:50:00,46.0,43.0,30.21,NNE,18,0.0,0.0,90,0.00,,,0.00,weatherlink.com 1.10,2013-10-22 06:50:00,
2013-10-22 02:05:00,45.4,43.0,30.21,NNE,19,0.0,0.0,91,0.00,,,0.00,weatherlink.com 1.10,2013-10-22 07:05:00,
2013-10-22 02:20:00,45.4,43.0,30.22,NNE,19,0.0,0.0,91,0.00,,,0.00,weatherlink.com 1.10,2013-10-22 07:20:00,
2013-10-22 02:35:00,45.4,43.0,30.22,NNE,18,0.0,0.0,91,0.00,,,0.00,weatherlink.com 1.10,2013-10-22 07:35:00,
2013-10-22 02:50:00,45.4,43.0,30.21,NNE,18,0.0,0.0,91,0.00,,,0.00,weatherlink.com 1.10,2013-10-22 07:50:00,
2013-10-22 03:05:00,45.1,43.0,30.21,NNE,18,0.0,0.0,91,0.00,,,0.00,weatherlink.com 1.10,2013-10-22 08:05:00,
2013-10-22 03:20:00,44.5,42.0,30.21,NNE,19,0.0,0.0,91,0.00,,,0.00,weatherlink.com 1.10,2013-10-22 08:20:00,
2013-10-22 03:35:00,43.5,41.0,30.21,NNE,18,0.0,0.0,91,0.00,,,0.00,weatherlink.com 1.10,2013-10-22 08:35:00,
2013-10-22 03:50:00,43.4,41.0,30.21,NNE,19,0.0,0.0,91,0.00,,,0.00,weatherlink.com 1.10,2013-10-22 08:50:00,
2013-10-22 04:05:00,43.1,41.0,30.20,NNE,19,0.0,0.0,92,0.00,,,0.00,weatherlink.com 1.10,2013-10-22 09:05:00,
2013-10-22 04:20:00,42.5,40.0,30.20,NNE,18,0.0,0.0,92,0.00,,,0.00,weatherlink.com 1.10,2013-10-22 09:20:00,
2013-10-22 04:35:00,42.1,40.0,30.20,NNE,19,0.0,0.0,92,0.00,,,0.00,weatherlink.com 1.10,2013-10-22 09:35:00,
2013-10-22 04:50:00,41.9,40.0,30.20,NNE,19,0.0,0.0,92,0.00,,,0.00,weatherlink.com 1.10,2013-10-22 09:50:00,
2013-10-22 05:05:00,41.6,40.0,30.19,NNE,19,0.0,0.0,92,0.00,,,0.00,weatherlink.com 1.10,2013-10-22 10:05:00,
2013-10-22 05:20:00,41.6,40.0,30.20,NNE,19,0.0,0.0,92,0.00,,,0.00,weatherlink.com 1.10,2013-10-22 10:20:00,
2013-10-22 05:35:00,40.1,38.0,30.20,NNE,19,0.0,0.0,92,0.00,,,0.00,weatherlink.com 1.10,2013-10-22 10:35:00,
2013-10-22 05:50:00,40.0,38.0,30.20,NNE,19,0.0,0.0,92,0.01,,,0.01,weatherlink.com 1.10,2013-10-22 10:50:00,
2013-10-22 06:05:00,40.3,38.0,30.20,NNE,19,0.0,0.0,92,0.01,,,0.01,weatherlink.com 1.10,2013-10-22 11:05:00,
2013-10-22 06:20:00,40.3,38.0,30.21,NNE,19,0.0,0.0,92,0.01,,,0.01,weatherlink.com 1.10,2013-10-22 11:20:00,
2013-10-22 06:35:00,39.9,38.0,30.21,NNE,18,0.0,0.0,92,0.01,,,0.01,weatherlink.com 1.10,2013-10-22 11:35:00,
2013-10-22 06:50:00,40.1,38.0,30.21,NNE,19,0.0,0.0,92,0.00,,,0.01,weatherlink.com 1.10,2013-10-22 11:50:00,
2013-10-22 07:05:00,39.6,38.0,30.20,NNE,19,0.0,0.0,92,0.00,,,0.01,weatherlink.com 1.10,2013-10-22 12:05:00,
2013-10-22 07:20:00,39.7,38.0,30.21,NNE,19,0.0,0.0,92,0.00,,,0.01,weatherlink.com 1.10,2013-10-22 12:20:00,
2013-10-22 07:35:00,40.6,39.0,30.22,NNE,19,0.0,0.0,93,0.00,,,0.01,weatherlink.com 1.10,2013-10-22 12:35:00,
2013-10-22 07:50:00,40.9,39.0,30.22,NNE,19,0.0,0.0,92,0.00,,,0.01,weatherlink.com 1.10,2013-10-22 12:50:00,
2013-10-22 08:06:00,41.3,40.0,30.22,NNE,19,0.0,0.0,93,0.00,,,0.01,weatherlink.com 1.10,2013-10-22 13:06:00,
2013-10-22 08:21:00,43.0,41.0,30.23,NNE,19,0.0,0.0,93,0.00,,,0.01,weatherlink.com 1.10,2013-10-22 13:21:00,
2013-10-22 08:36:00,44.3,42.0,30.23,NNE,18,0.0,0.0,93,0.00,,,0.01,weatherlink.com 1.10,2013-10-22 13:36:00,
2013-10-22 08:51:00,45.8,44.0,30.23,NNE,18,0.0,0.0,93,0.00,,,0.01,weatherlink.com 1.10,2013-10-22 13:51:00,
2013-10-22 09:06:00,47.4,46.0,30.23,NNE,18,0.0,0.0,93,0.00,,,0.01,weatherlink.com 1.10,2013-10-22 14:06:00,
2013-10-22 09:21:00,49.4,48.0,30.24,NNE,18,0.0,0.0,93,0.00,,,0.01,weatherlink.com 1.10,2013-10-22 14:21:00,
2013-10-22 09:36:00,51.1,49.0,30.23,NNE,18,0.0,0.0,93,0.00,,,0.01,weatherlink.com 1.10,2013-10-22 14:36:00,
2013-10-22 09:51:00,53.0,51.0,30.24,NNE,19,0.0,0.0,92,0.00,,,0.01,weatherlink.com 1.10,2013-10-22 14:51:00,
2013-10-22 10:06:00,55.7,53.0,30.24,East,91,2.0,3.0,89,0.00,,,0.01,weatherlink.com 1.10,2013-10-22 15:06:00,
2013-10-22 10:21:00,57.2,52.0,30.24,South,182,0.0,0.0,82,0.00,,,0.01,weatherlink.com 1.10,2013-10-22 15:21:00,
2013-10-22 10:36:00,59.0,50.0,30.24,SSW,211,0.0,5.0,72,0.00,,,0.01,weatherlink.com 1.10,2013-10-22 15:36:00,
2013-10-22 10:51:00,60.8,49.0,30.24,SW,226,0.0,0.0,66,0.00,,,0.01,weatherlink.com 1.10,2013-10-22 15:51:00,
2013-10-22 11:06:00,62.9,49.0,30.24,SW,229,0.0,0.0,61,0.00,,,0.01,weatherlink.com 1.10,2013-10-22 16:06:00,
2013-10-22 11:21:00,64.8,48.0,30.24,SW,228,0.0,5.0,54,0.00,,,0.01,weatherlink.com 1.10,2013-10-22 16:21:00,
2013-10-22 11:36:00,66.0,47.0,30.23,WSW,242,2.0,6.0,50,0.00,,,0.01,weatherlink.com 1.10,2013-10-22 16:36:00,
2013-10-22 11:51:00,67.1,48.0,30.23,WSW,242,0.0,3.0,50,0.00,,,0.01,weatherlink.com 1.10,2013-10-22 16:51:00,
2013-10-22 12:06:00,67.8,48.0,30.22,West,273,0.0,6.0,50,0.00,,,0.01,weatherlink.com 1.10,2013-10-22 17:06:00,
2013-10-22 12:21:00,68.6,49.0,30.22,West,264,0.0,6.0,49,0.00,,,0.01,weatherlink.com 1.10,2013-10-22 17:21:00,
2013-10-22 12:36:00,69.0,48.0,30.20,SW,232,3.0,5.0,47,0.00,,,0.01,weatherlink.com 1.10,2013-10-22 17:36:00,
2013-10-22 12:51:00,69.9,48.0,30.20,South,180,3.0,6.0,46,0.00,,,0.01,weatherlink.com 1.10,2013-10-22 17:51:00,
2013-10-22 13:07:00,71.0,49.0,30.19,West,268,0.0,2.0,45,0.00,,,0.01,weatherlink.com 1.10,2013-10-22 18:07:00,
2013-10-22 13:22:00,71.5,49.0,30.18,WSW,248,0.0,6.0,45,0.00,,,0.01,weatherlink.com 1.10,2013-10-22 18:22:00,
2013-10-22 13:37:00,72.2,48.0,30.17,WSW,244,2.0,7.0,43,0.00,,,0.01,weatherlink.com 1.10,2013-10-22 18:37:00,
2013-10-22 13:52:00,72.6,48.0,30.16,SW,231,0.0,0.0,42,0.00,,,0.01,weatherlink.com 1.10,2013-10-22 18:52:00,
2013-10-22 14:07:00,73.7,46.0,30.16,NW,309,0.0,6.0,37,0.00,,,0.01,weatherlink.com 1.10,2013-10-22 19:07:00,
2013-10-22 14:22:00,74.4,46.0,30.15,NW,304,0.0,7.0,37,0.00,,,0.01,weatherlink.com 1.10,2013-10-22 19:22:00,
2013-10-22 14:37:00,75.0,46.0,30.14,WNW,284,0.0,10.0,35,0.00,,,0.01,weatherlink.com 1.10,2013-10-22 19:37:00,
2013-10-22 14:52:00,75.1,45.0,30.14,SW,234,0.0,16.0,34,0.00,,,0.01,weatherlink.com 1.10,2013-10-22 19:52:00,
2013-10-22 15:07:00,75.4,43.0,30.13,NW,313,0.0,7.0,32,0.00,,,0.01,weatherlink.com 1.10,2013-10-22 20:07:00,
2013-10-22 15:22:00,76.5,46.0,30.13,SW,227,0.0,7.0,34,0.00,,,0.01,weatherlink.com 1.10,2013-10-22 20:22:00,
2013-10-22 15:37:00,76.7,45.0,30.13,WSW,238,6.0,10.0,33,0.00,,,0.01,weatherlink.com 1.10,2013-10-22 20:37:00,
2013-10-22 15:52:00,76.8,46.0,30.12,WSW,241,0.0,8.0,34,0.00,,,0.01,weatherlink.com 1.10,2013-10-22 20:52:00,
2013-10-22 16:07:00,77.1,46.0,30.12,West,275,0.0,6.0,33,0.00,,,0.01,weatherlink.com 1.10,2013-10-22 21:07:00,
2013-10-22 16:22:00,77.6,46.0,30.12,West,269,0.0,3.0,33,0.00,,,0.01,weatherlink.com 1.10,2013-10-22 21:22:00,
2013-10-22 16:37:00,77.5,45.0,30.11,WNW,295,1.0,7.0,32,0.00,,,0.01,weatherlink.com 1.10,2013-10-22 21:37:00,
2013-10-22 16:52:00,77.3,46.0,30.11,WSW,246,1.0,7.0,33,0.00,,,0.01,weatherlink.com 1.10,2013-10-22 21:52:00,
2013-10-22 17:07:00,77.8,46.0,30.10,WSW,246,2.0,4.0,33,0.00,,,0.01,weatherlink.com 1.10,2013-10-22 22:07:00,
2013-10-22 17:22:00,77.7,45.0,30.10,WSW,242,0.0,8.0,31,0.00,,,0.01,weatherlink.com 1.10,2013-10-22 22:22:00,
2013-10-22 17:37:00,77.2,44.0,30.10,WSW,245,0.0,4.0,31,0.00,,,0.01,weatherlink.com 1.10,2013-10-22 22:37:00,
2013-10-22 17:52:00,77.7,46.0,30.09,WSW,249,0.0,3.0,33,0.00,,,0.01,weatherlink.com 1.10,2013-10-22 22:52:00,
2013-10-22 18:07:00,76.0,48.0,30.09,WSW,249,0.0,2.0,37,0.00,,,0.01,weatherlink.com 1.10,2013-10-22 23:07:00,
2013-10-22 18:22:00,74.7,49.0,30.09,WSW,249,0.0,0.0,41,0.00,,,0.01,weatherlink.com 1.10,2013-10-22 23:22:00,
2013-10-22 18:37:00,71.9,51.0,30.09,WSW,249,0.0,0.0,48,0.00,,,0.01,weatherlink.com 1.10,2013-10-22 23:37:00,
2013-10-22 18:52:00,68.5,50.0,30.09,WSW,249,0.0,0.0,51,0.00,,,0.01,weatherlink.com 1.10,2013-10-22 23:52:00,
2013-10-22 19:07:00,65.0,49.0,30.09,WSW,249,0.0,0.0,57,0.00,,,0.01,weatherlink.com 1.10,2013-10-23 00:07:00,
2013-10-22 19:22:00,62.8,49.0,30.09,WSW,249,0.0,0.0,62,0.00,,,0.01,weatherlink.com 1.10,2013-10-23 00:22:00,
2013-10-22 19:37:00,60.6,49.0,30.09,WSW,249,0.0,0.0,66,0.00,,,0.01,weatherlink.com 1.10,2013-10-23 00:37:00,
2013-10-22 20:07:00,57.5,49.0,30.10,WSW,249,0.0,0.0,73,0.00,,,0.01,weatherlink.com 1.10,2013-10-23 01:07:00,
2013-10-22 20:22:00,56.4,49.0,30.10,WSW,249,0.0,0.0,75,0.00,,,0.01,weatherlink.com 1.10,2013-10-23 01:22:00,
2013-10-22 20:37:00,55.5,48.0,30.11,WSW,249,0.0,0.0,77,0.00,,,0.01,weatherlink.com 1.10,2013-10-23 01:37:00,
2013-10-22 20:52:00,54.9,48.0,30.11,WSW,249,0.0,0.0,78,0.00,,,0.01,weatherlink.com 1.10,2013-10-23 01:52:00,
2013-10-22 21:07:00,54.4,48.0,30.11,WSW,249,0.0,0.0,79,0.00,,,0.01,weatherlink.com 1.10,2013-10-23 02:07:00,
2013-10-22 21:22:00,54.4,48.0,30.11,WSW,249,0.0,0.0,79,0.00,,,0.01,weatherlink.com 1.10,2013-10-23 02:22:00,
2013-10-22 21:37:00,54.2,48.0,30.11,WSW,249,0.0,0.0,79,0.00,,,0.01,weatherlink.com 1.10,2013-10-23 02:37:00,
2013-10-22 21:52:00,53.5,48.0,30.12,WSW,249,0.0,0.0,80,0.00,,,0.01,weatherlink.com 1.10,2013-10-23 02:52:00,
2013-10-22 22:07:00,52.9,47.0,30.12,WSW,249,0.0,0.0,81,0.00,,,0.01,weatherlink.com 1.10,2013-10-23 03:07:00,
2013-10-22 22:22:00,52.5,47.0,30.12,WSW,249,0.0,0.0,81,0.00,,,0.01,weatherlink.com 1.10,2013-10-23 03:22:00,
2013-10-22 22:37:00,51.9,47.0,30.13,WSW,249,0.0,0.0,82,0.00,,,0.01,weatherlink.com 1.10,2013-10-23 03:37:00,
2013-10-22 22:52:00,51.6,47.0,30.13,WSW,249,0.0,0.0,83,0.00,,,0.01,weatherlink.com 1.10,2013-10-23 03:52:00,
2013-10-22 23:07:00,51.4,47.0,30.13,WSW,249,0.0,0.0,84,0.00,,,0.01,weatherlink.com 1.10,2013-10-23 04:07:00,
2013-10-22 23:22:00,51.1,47.0,30.13,WSW,249,0.0,0.0,85,0.00,,,0.01,weatherlink.com 1.10,2013-10-23 04:22:00,
2013-10-22 23:37:00,50.8,47.0,30.13,WSW,249,0.0,0.0,85,0.00,,,0.01,weatherlink.com 1.10,2013-10-23 04:37:00,
2013-10-22 23:52:00,50.6,47.0,30.13,WSW,249,0.0,0.0,86,0.00,,,0.01,weatherlink.com 1.10,2013-10-23 04:52:00,